This demonstration page uses our WeatherBlox Daily Observations layout. Learn more.

Left ArrowRight Arrow

39.08367, -84.50855

Hourly Observations for April 24, 2019

Temp ( °F °C ) Dew Point ( °F °C ) Humidity (%) Winds ( mph kmh ) Pressure ( in mb ) Visibility ( mi km ) Precip ( " mm )
12:53 am 00:53 Partly Cloudy 56 13.3 48 8.9 75 75 NNW 3 6 30.01 1016 10 16.0934 0 0
1:53 am 01:53 Cloudy 55 12.8 47 8.3 74 74 N 6 9 30.01 1016 10 16.0934 0 0
2:53 am 02:53 Cloudy 54 12.2 46 7.8 75 75 NNE 8 13 30.01 1016 10 16.0934 0 0
3:53 am 03:53 Cloudy 52 11.1 42 5.6 69 69 NNE 7 11 30.02 1017 10 16.0934 0 0
4:53 am 04:53 Mostly Cloudy 50 10 42 5.6 74 74 NNE 6 9 30.02 1017 10 16.0934 0 0
5:53 am 05:53 Cloudy 50 10 43 6.1 77 77 VRB 3 6 30.01 1016 10 16.0934 0 0
6:53 am 06:53 Mostly Cloudy 50 10 44 6.7 80 80 NE 6 9 30.02 1017 10 16.0934 0 0
7:53 am 07:53 Cloudy 50 10 42 5.6 74 74 ENE 6 9 30.04 1017 10 16.0934 0 0
8:53 am 08:53 Mostly Cloudy 52 11.1 43 6.1 72 72 NE 8 13 30.05 1018 10 16.0934 0 0
9:53 am 09:53 Partly Cloudy 55 12.8 44 6.7 67 67 E 5 7 30.04 1017 10 16.0934 0 0
10:53 am 10:53 Mostly Cloudy 56 13.3 43 6.1 62 62 NE 3 6 30.04 1017 10 16.0934 0 0
11:53 am 11:53 Mostly Cloudy 60 15.6 44 6.7 56 56 Calm 30.03 1017 10 16.0934 0 0
12:53 pm 12:53 Mostly Cloudy 60 15.6 45 7.2 58 58 VRB 3 6 30.01 1016 10 16.0934 0 0
1:53 pm 13:53 Cloudy 62 16.7 46 7.8 56 56 Calm 29.98 1015 10 16.0934 0 0
2:53 pm 14:53 Mostly Cloudy 65 18.3 45 7.2 49 49 E 6 9 29.96 1015 10 16.0934 0 0
3:11 pm 15:11 Cloudy 65 18.3 45 7.2 49 49 VRB 3 6 29.95 1014 10 16.0934 0 0
3:24 pm 15:24 Partly Cloudy 67 19.4 47 8.3 49 49 NE 7 11 29.94 1014 10 16.0934 0 0
3:53 pm 15:53 Sunny 67 19.4 48 8.9 51 51 SSE 7 11 29.9 1013 10 16.0934 0 0
4:53 pm 16:53 Sunny 69 20.6 49 9.4 49 49 VRB 5 7 29.9 1012 10 16.0934 0 0
5:53 pm 17:53 Mostly Cloudy 68 20 50 10 53 53 NE 6 9 29.89 1012 10 16.0934 0 0
6:53 pm 18:53 Mostly Cloudy 66 18.9 49 9.4 54 54 NE 6 9 29.88 1012 10 16.0934 0 0
7:53 pm 19:53 Partly Cloudy 64 17.8 48 8.9 56 56 NE 7 11 29.87 1012 10 16.0934 0 0
8:53 pm 20:53 Cloudy with Light Rain 62 16.7 51 10.6 67 67 ENE 5 7 29.89 1012 10 16.0934 0 0.0254
9:53 pm 21:53 Cloudy with Light Rain 59 15 53 11.7 81 81 SSW 3 6 29.89 1012 10 16.0934 0 0.0254
10:53 pm 22:53 Cloudy with Light Rain 57 13.9 55 12.8 93 93 Calm 29.9 1013 10 16.0934 0.03 0.762
11:53 pm 23:53 Cloudy with Light Rain 57 13.9 55 12.8 93 93 Calm 29.89 1012 7 11.26538 0.09 2.286

Powered by AerisWeather